Location: La Comballaz
(46.3780°N, 7.0817°E)
Time: 22:50:20
(UTC+00:00)

Cosmos 841 Rocket - Pass Details

Date: 09 April 2020
Orbit: 747 x 772 km, 74.0° (Epoch: 03 June)

Event Time Altitude Azimuth Distance (km) Brightness Sun altitude
Rises 20:21:13 0° 342° (NNW) 3,258 7.7 -20.9°
Reaches altitude 10° 20:23:44 10° 349° (N) 2,326 6.7 -21.3°
Maximum altitude 20:28:47 45° 62° (ENE) 1,050 4.0 -21.9°
Enters shadow 20:29:32 42° 86° (E) 1,094 3.9 -22.0°
